Terminal Aerodrome Forecast
Issued by NWS Sioux Falls, SD

Home | Current Version | Previous Version | Text Only | Print | Product List | Glossary Off
Versions: 1 2 3 4 5 6 7 8 9 10 11 12 13 14 15 16 17 18 19 20 21 22 23 24 25 26 27 28 29 30 31 32

000
FTUS43 KFSD 012001 AAA
TAFSUX
TAF AMD
KSUX 012001Z 0120/0218 11010KT P6SM BKN030
     FM012200 10007KT P6SM BKN040
     FM020000 10007KT P6SM SCT050 BKN150
     FM020500 11006KT P6SM BKN050
     FM020900 10005KT P6SM SCT025 BKN100=

USA.gov is the U.S. government's official web portal to all federal, state and local government web resources and services.